Location: *
(10.4782°N, 67.2163°W)
Time: 23:02:33
(UTC+00:00)

COSMOS 2428 - Pass Details

Date: 23 May 2024
Orbit: 844 x 856 km, 70.9° (Epoch: 25 June)

Event Time Altitude Azimuth Distance (km) Brightness Sun altitude
Rises 08:57:43 0° 351° (N) 3,397 6.1 -16.3°
Reaches altitude 10° 09:00:12 10° 355° (N) 2,464 5.4 -15.7°
Maximum altitude 09:05:45 58° 73° (ENE) 983 3.4 -14.5°
Drops below altitude 10° 09:11:20 10° 152° (SSE) 2,473 5.2 -13.2°
Sets 09:13:49 0° 156° (SSE) 3,411 5.9 -12.7°
